Year,Month,Day,Hour,Minute,Value (Times are PST for insolation in W/m^2)
2020,06,22,00,00,0.00
2020,06,22,00,01,0.00
2020,06,22,00,02,0.00
2020,06,22,00,03,0.00
2020,06,22,00,04,0.00
2020,06,22,00,05,0.00
2020,06,22,00,06,0.00
2020,06,22,00,07,0.00
2020,06,22,00,08,0.00
2020,06,22,00,09,0.00
2020,06,22,00,10,0.00
2020,06,22,00,11,0.00
2020,06,22,00,12,0.00
2020,06,22,00,13,0.00
2020,06,22,00,14,0.00
2020,06,22,00,15,0.00
2020,06,22,00,16,0.00
2020,06,22,00,17,0.00
2020,06,22,00,18,0.00
2020,06,22,00,19,0.00
2020,06,22,00,20,0.00
2020,06,22,00,21,0.00
2020,06,22,00,22,0.00
2020,06,22,00,23,0.00
2020,06,22,00,24,0.00
2020,06,22,00,25,0.00
2020,06,22,00,26,0.00
2020,06,22,00,27,0.00
2020,06,22,00,28,0.00
2020,06,22,00,29,0.00
2020,06,22,00,30,0.00
2020,06,22,00,31,0.00
2020,06,22,00,32,0.00
2020,06,22,00,33,0.00
2020,06,22,00,34,0.00
2020,06,22,00,35,0.00
2020,06,22,00,36,0.00
2020,06,22,00,37,0.00
2020,06,22,00,38,0.00
2020,06,22,00,39,0.00
2020,06,22,00,40,0.00
2020,06,22,00,41,0.00
2020,06,22,00,42,0.00
2020,06,22,00,43,0.00
2020,06,22,00,44,0.00
2020,06,22,00,45,0.00
2020,06,22,00,46,0.00
2020,06,22,00,47,0.00
2020,06,22,00,48,0.00
2020,06,22,00,49,0.00
2020,06,22,00,50,0.00
2020,06,22,00,51,0.00
2020,06,22,00,52,0.00
2020,06,22,00,53,0.00
2020,06,22,00,54,0.00
2020,06,22,00,55,0.00
2020,06,22,00,56,0.00
2020,06,22,00,57,0.00
2020,06,22,00,58,0.00
2020,06,22,00,59,0.00
2020,06,22,01,00,0.00
2020,06,22,01,01,0.00
2020,06,22,01,02,0.00
2020,06,22,01,03,0.00
2020,06,22,01,04,0.00
2020,06,22,01,05,0.00
2020,06,22,01,06,0.00
2020,06,22,01,07,0.00
2020,06,22,01,08,0.00
2020,06,22,01,09,0.00
2020,06,22,01,10,0.00
2020,06,22,01,11,0.00
2020,06,22,01,12,0.00
2020,06,22,01,13,0.00
2020,06,22,01,14,0.00
2020,06,22,01,15,0.00
2020,06,22,01,16,0.00
2020,06,22,01,17,0.00
2020,06,22,01,18,0.00
2020,06,22,01,19,0.00
2020,06,22,01,20,0.00
2020,06,22,01,21,0.00
2020,06,22,01,22,0.00
2020,06,22,01,23,0.00
2020,06,22,01,24,0.00
2020,06,22,01,25,0.00
2020,06,22,01,26,0.00
2020,06,22,01,27,0.00
2020,06,22,01,28,0.00
2020,06,22,01,29,0.00
2020,06,22,01,30,0.00
2020,06,22,01,31,0.00
2020,06,22,01,32,0.00
2020,06,22,01,33,0.00
2020,06,22,01,34,0.00
2020,06,22,01,35,0.00
2020,06,22,01,36,0.00
2020,06,22,01,37,0.00
2020,06,22,01,38,0.00
2020,06,22,01,39,0.00
2020,06,22,01,40,0.00
2020,06,22,01,41,0.00
2020,06,22,01,42,0.00
2020,06,22,01,43,0.00
2020,06,22,01,44,0.00
2020,06,22,01,45,0.00
2020,06,22,01,46,0.00
2020,06,22,01,47,0.00
2020,06,22,01,48,0.00
2020,06,22,01,49,0.00
2020,06,22,01,50,0.00
2020,06,22,01,51,0.00
2020,06,22,01,52,0.00
2020,06,22,01,53,0.00
2020,06,22,01,54,0.00
2020,06,22,01,55,0.00
2020,06,22,01,56,0.00
2020,06,22,01,57,0.00
2020,06,22,01,58,0.00
2020,06,22,01,59,0.00
2020,06,22,02,00,0.00
2020,06,22,02,01,0.00
2020,06,22,02,02,0.00
2020,06,22,02,03,0.00
2020,06,22,02,04,0.00
2020,06,22,02,05,0.00
2020,06,22,02,06,0.00
2020,06,22,02,07,0.00
2020,06,22,02,08,0.00
2020,06,22,02,09,0.00
2020,06,22,02,10,0.00
2020,06,22,02,11,0.00
2020,06,22,02,12,0.00
2020,06,22,02,13,0.00
2020,06,22,02,14,0.00
2020,06,22,02,15,0.00
2020,06,22,02,16,0.00
2020,06,22,02,17,0.00
2020,06,22,02,18,0.00
2020,06,22,02,19,0.00
2020,06,22,02,20,0.00
2020,06,22,02,21,0.00
2020,06,22,02,22,0.00
2020,06,22,02,23,0.00
2020,06,22,02,24,0.00
2020,06,22,02,25,0.00
2020,06,22,02,26,0.00
2020,06,22,02,27,0.00
2020,06,22,02,28,0.00
2020,06,22,02,29,0.00
2020,06,22,02,30,0.00
2020,06,22,02,31,0.00
2020,06,22,02,32,0.00
2020,06,22,02,33,0.00
2020,06,22,02,34,0.00
2020,06,22,02,35,0.00
2020,06,22,02,36,0.00
2020,06,22,02,37,0.00
2020,06,22,02,38,0.00
2020,06,22,02,39,0.00
2020,06,22,02,40,0.00
2020,06,22,02,41,0.00
2020,06,22,02,42,0.00
2020,06,22,02,43,0.00
2020,06,22,02,44,0.00
2020,06,22,02,45,0.00
2020,06,22,02,46,0.00
2020,06,22,02,47,0.00
2020,06,22,02,48,0.00
2020,06,22,02,49,0.00
2020,06,22,02,50,0.00
2020,06,22,02,51,0.00
2020,06,22,02,52,0.00
2020,06,22,02,53,0.00
2020,06,22,02,54,0.00
2020,06,22,02,55,0.00
2020,06,22,02,56,0.00
2020,06,22,02,57,0.00
2020,06,22,02,58,0.00
2020,06,22,02,59,0.00
2020,06,22,03,00,0.00
2020,06,22,03,01,0.00
2020,06,22,03,02,0.00
2020,06,22,03,03,0.00
2020,06,22,03,04,0.00
2020,06,22,03,05,0.00
2020,06,22,03,06,0.00
2020,06,22,03,07,0.00
2020,06,22,03,08,0.00
2020,06,22,03,09,0.00
2020,06,22,03,10,0.00
2020,06,22,03,11,0.00
2020,06,22,03,12,0.00
2020,06,22,03,13,0.00
2020,06,22,03,14,0.00
2020,06,22,03,15,0.00
2020,06,22,03,16,0.00
2020,06,22,03,17,0.00
2020,06,22,03,18,0.00
2020,06,22,03,19,0.00
2020,06,22,03,20,0.00
2020,06,22,03,21,0.00
2020,06,22,03,22,0.00
2020,06,22,03,23,0.00
2020,06,22,03,24,0.00
2020,06,22,03,25,0.00
2020,06,22,03,26,0.00
2020,06,22,03,27,0.00
2020,06,22,03,28,0.00
2020,06,22,03,29,0.00
2020,06,22,03,30,0.00
2020,06,22,03,31,0.00
2020,06,22,03,32,0.00
2020,06,22,03,33,0.00
2020,06,22,03,34,0.00
2020,06,22,03,35,0.00
2020,06,22,03,36,0.00
2020,06,22,03,37,0.00
2020,06,22,03,38,0.00
2020,06,22,03,39,0.00
2020,06,22,03,40,0.00
2020,06,22,03,41,0.00
2020,06,22,03,42,0.00
2020,06,22,03,43,0.00
2020,06,22,03,44,0.00
2020,06,22,03,45,0.00
2020,06,22,03,46,0.00
2020,06,22,03,47,0.00
2020,06,22,03,48,0.00
2020,06,22,03,49,0.00
2020,06,22,03,50,0.00
2020,06,22,03,51,0.00
2020,06,22,03,52,0.00
2020,06,22,03,53,0.00
2020,06,22,03,54,0.00
2020,06,22,03,55,0.00
2020,06,22,03,56,0.00
2020,06,22,03,57,0.00
2020,06,22,03,58,0.00
2020,06,22,03,59,0.00
2020,06,22,04,00,0.00
2020,06,22,04,01,0.00
2020,06,22,04,02,0.00
2020,06,22,04,03,0.00
2020,06,22,04,04,0.00
2020,06,22,04,05,0.00
2020,06,22,04,06,0.00
2020,06,22,04,07,0.00
2020,06,22,04,08,0.00
2020,06,22,04,09,0.00
2020,06,22,04,10,0.00
2020,06,22,04,11,0.00
2020,06,22,04,12,0.00
2020,06,22,04,13,0.00
2020,06,22,04,14,0.00
2020,06,22,04,15,0.00
2020,06,22,04,16,0.00
2020,06,22,04,17,0.00
2020,06,22,04,18,0.00
2020,06,22,04,19,0.00
2020,06,22,04,20,0.00
2020,06,22,04,21,0.00
2020,06,22,04,22,0.00
2020,06,22,04,23,0.00
2020,06,22,04,24,0.00
2020,06,22,04,25,0.00
2020,06,22,04,26,0.00
2020,06,22,04,27,0.00
2020,06,22,04,28,0.00
2020,06,22,04,29,0.00
2020,06,22,04,30,0.00
2020,06,22,04,31,0.00
2020,06,22,04,32,0.00
2020,06,22,04,33,0.00
2020,06,22,04,34,0.00
2020,06,22,04,35,0.00
2020,06,22,04,36,0.00
2020,06,22,04,37,0.00
2020,06,22,04,38,0.00
2020,06,22,04,39,0.00
2020,06,22,04,40,0.00
2020,06,22,04,41,0.00
2020,06,22,04,42,0.00
2020,06,22,04,43,0.00
2020,06,22,04,44,0.00
2020,06,22,04,45,0.00
2020,06,22,04,46,0.00
2020,06,22,04,47,0.00
2020,06,22,04,48,0.00
2020,06,22,04,49,0.00
2020,06,22,04,50,0.00
2020,06,22,04,51,0.00
2020,06,22,04,52,0.00
2020,06,22,04,53,0.00
2020,06,22,04,54,0.00
2020,06,22,04,55,0.00
2020,06,22,04,56,0.00
2020,06,22,04,57,0.00
2020,06,22,04,58,0.00
2020,06,22,04,59,0.00
2020,06,22,05,00,0.00
2020,06,22,05,01,0.00
2020,06,22,05,02,0.00
2020,06,22,05,03,0.00
2020,06,22,05,04,0.00
2020,06,22,05,05,0.00
2020,06,22,05,06,0.00
2020,06,22,05,07,0.00
2020,06,22,05,08,0.00
2020,06,22,05,09,0.00
2020,06,22,05,10,0.00
2020,06,22,05,11,0.00
2020,06,22,05,12,0.00
2020,06,22,05,13,0.00
2020,06,22,05,14,0.00
2020,06,22,05,15,0.00
2020,06,22,05,16,0.00
2020,06,22,05,17,0.00
2020,06,22,05,18,1.20
2020,06,22,05,19,5.00
2020,06,22,05,20,5.00
2020,06,22,05,21,5.00
2020,06,22,05,22,5.00
2020,06,22,05,23,5.00
2020,06,22,05,24,5.00
2020,06,22,05,25,5.00
2020,06,22,05,26,6.10
2020,06,22,05,27,7.00
2020,06,22,05,28,7.00
2020,06,22,05,29,7.00
2020,06,22,05,30,7.00
2020,06,22,05,31,7.00
2020,06,22,05,32,8.10
2020,06,22,05,33,9.00
2020,06,22,05,34,9.00
2020,06,22,05,35,9.00
2020,06,22,05,36,9.50
2020,06,22,05,37,11.00
2020,06,22,05,38,11.00
2020,06,22,05,39,11.00
2020,06,22,05,40,11.00
2020,06,22,05,41,12.00
2020,06,22,05,42,12.00
2020,06,22,05,43,12.00
2020,06,22,05,44,13.20
2020,06,22,05,45,14.00
2020,06,22,05,46,15.80
2020,06,22,05,47,16.30
2020,06,22,05,48,18.40
2020,06,22,05,49,19.00
2020,06,22,05,50,19.00
2020,06,22,05,51,20.60
2020,06,22,05,52,21.00
2020,06,22,05,53,21.40
2020,06,22,05,54,23.00
2020,06,22,05,55,24.00
2020,06,22,05,56,25.60
2020,06,22,05,57,27.60
2020,06,22,05,58,30.20
2020,06,22,05,59,33.40
2020,06,22,06,00,36.50
2020,06,22,06,01,40.50
2020,06,22,06,02,43.40
2020,06,22,06,03,46.40
2020,06,22,06,04,49.10
2020,06,22,06,05,51.00
2020,06,22,06,06,51.70
2020,06,22,06,07,53.00
2020,06,22,06,08,53.00
2020,06,22,06,09,51.30
2020,06,22,06,10,50.70
2020,06,22,06,11,48.50
2020,06,22,06,12,46.60
2020,06,22,06,13,46.00
2020,06,22,06,14,41.20
2020,06,22,06,15,37.30
2020,06,22,06,16,32.80
2020,06,22,06,17,31.50
2020,06,22,06,18,29.10
2020,06,22,06,19,26.80
2020,06,22,06,20,25.30
2020,06,22,06,21,25.00
2020,06,22,06,22,25.00
2020,06,22,06,23,24.40
2020,06,22,06,24,23.00
2020,06,22,06,25,23.00
2020,06,22,06,26,23.00
2020,06,22,06,27,22.90
2020,06,22,06,28,20.60
2020,06,22,06,29,19.00
2020,06,22,06,30,19.00
2020,06,22,06,31,19.00
2020,06,22,06,32,19.00
2020,06,22,06,33,20.80
2020,06,22,06,34,21.00
2020,06,22,06,35,21.00
2020,06,22,06,36,22.90
2020,06,22,06,37,25.60
2020,06,22,06,38,26.00
2020,06,22,06,39,26.00
2020,06,22,06,40,26.00
2020,06,22,06,41,26.00
2020,06,22,06,42,26.00
2020,06,22,06,43,26.00
2020,06,22,06,44,26.00
2020,06,22,06,45,26.20
2020,06,22,06,46,29.20
2020,06,22,06,47,40.70
2020,06,22,06,48,67.20
2020,06,22,06,49,73.20
2020,06,22,06,50,65.80
2020,06,22,06,51,66.80
2020,06,22,06,52,57.80
2020,06,22,06,53,83.20
2020,06,22,06,54,128.10
2020,06,22,06,55,156.70
2020,06,22,06,56,144.50
2020,06,22,06,57,174.20
2020,06,22,06,58,176.90
2020,06,22,06,59,180.70
2020,06,22,07,00,185.90
2020,06,22,07,01,191.50
2020,06,22,07,02,177.80
2020,06,22,07,03,131.90
2020,06,22,07,04,138.10
2020,06,22,07,05,152.20
2020,06,22,07,06,200.70
2020,06,22,07,07,213.20
2020,06,22,07,08,217.90
2020,06,22,07,09,226.50
2020,06,22,07,10,236.10
2020,06,22,07,11,247.70
2020,06,22,07,12,261.80
2020,06,22,07,13,278.80
2020,06,22,07,14,299.10
2020,06,22,07,15,321.60
2020,06,22,07,16,341.90
2020,06,22,07,17,358.60
2020,06,22,07,18,373.80
2020,06,22,07,19,385.10
2020,06,22,07,20,391.90
2020,06,22,07,21,393.20
2020,06,22,07,22,373.00
2020,06,22,07,23,355.00
2020,06,22,07,24,223.60
2020,06,22,07,25,151.90
2020,06,22,07,26,144.10
2020,06,22,07,27,120.80
2020,06,22,07,28,110.80
2020,06,22,07,29,108.50
2020,06,22,07,30,104.00
2020,06,22,07,31,104.00
2020,06,22,07,32,104.20
2020,06,22,07,33,106.10
2020,06,22,07,34,110.70
2020,06,22,07,35,113.60
2020,06,22,07,36,137.80
2020,06,22,07,37,185.10
2020,06,22,07,38,246.00
2020,06,22,07,39,212.30
2020,06,22,07,40,117.10
2020,06,22,07,41,121.20
2020,06,22,07,42,135.30
2020,06,22,07,43,182.40
2020,06,22,07,44,142.70
2020,06,22,07,45,128.60
2020,06,22,07,46,134.60
2020,06,22,07,47,184.70
2020,06,22,07,48,259.10
2020,06,22,07,49,341.10
2020,06,22,07,50,327.00
2020,06,22,07,51,296.10
2020,06,22,07,52,228.20
2020,06,22,07,53,240.80
2020,06,22,07,54,303.70
2020,06,22,07,55,337.00
2020,06,22,07,56,343.00
2020,06,22,07,57,344.10
2020,06,22,07,58,346.90
2020,06,22,07,59,350.50
2020,06,22,08,00,355.80
2020,06,22,08,01,360.10
2020,06,22,08,02,364.60
2020,06,22,08,03,368.50
2020,06,22,08,04,372.60
2020,06,22,08,05,376.70
2020,06,22,08,06,379.70
2020,06,22,08,07,384.80
2020,06,22,08,08,387.20
2020,06,22,08,09,388.70
2020,06,22,08,10,391.10
2020,06,22,08,11,393.30
2020,06,22,08,12,396.50
2020,06,22,08,13,401.30
2020,06,22,08,14,405.00
2020,06,22,08,15,409.10
2020,06,22,08,16,414.90
2020,06,22,08,17,424.20
2020,06,22,08,18,437.10
2020,06,22,08,19,459.00
2020,06,22,08,20,481.30
2020,06,22,08,21,504.50
2020,06,22,08,22,528.30
2020,06,22,08,23,471.70
2020,06,22,08,24,437.50
2020,06,22,08,25,237.00
2020,06,22,08,26,227.10
2020,06,22,08,27,205.40
2020,06,22,08,28,217.40
2020,06,22,08,29,211.70
2020,06,22,08,30,202.80
2020,06,22,08,31,209.80
2020,06,22,08,32,275.60
2020,06,22,08,33,279.10
2020,06,22,08,34,285.90
2020,06,22,08,35,289.60
2020,06,22,08,36,243.90
2020,06,22,08,37,294.60
2020,06,22,08,38,235.80
2020,06,22,08,39,239.00
2020,06,22,08,40,239.00
2020,06,22,08,41,231.90
2020,06,22,08,42,230.00
2020,06,22,08,43,287.10
2020,06,22,08,44,499.20
2020,06,22,08,45,495.10
2020,06,22,08,46,492.70
2020,06,22,08,47,490.40
2020,06,22,08,48,490.20
2020,06,22,08,49,492.00
2020,06,22,08,50,492.00
2020,06,22,08,51,493.10
2020,06,22,08,52,496.10
2020,06,22,08,53,497.00
2020,06,22,08,54,501.20
2020,06,22,08,55,503.80
2020,06,22,08,56,506.80
2020,06,22,08,57,510.30
2020,06,22,08,58,514.10
2020,06,22,08,59,516.70
2020,06,22,09,00,522.40
2020,06,22,09,01,526.90
2020,06,22,09,02,531.10
2020,06,22,09,03,538.10
2020,06,22,09,04,548.50
2020,06,22,09,05,564.60
2020,06,22,09,06,582.20
2020,06,22,09,07,596.20
2020,06,22,09,08,602.90
2020,06,22,09,09,603.80
2020,06,22,09,10,601.50
2020,06,22,09,11,597.90
2020,06,22,09,12,590.10
2020,06,22,09,13,583.20
2020,06,22,09,14,582.40
2020,06,22,09,15,579.00
2020,06,22,09,16,567.90
2020,06,22,09,17,558.30
2020,06,22,09,18,566.00
2020,06,22,09,19,566.70
2020,06,22,09,20,568.90
2020,06,22,09,21,570.60
2020,06,22,09,22,572.50
2020,06,22,09,23,573.40
2020,06,22,09,24,577.00
2020,06,22,09,25,577.00
2020,06,22,09,26,579.60
2020,06,22,09,27,583.40
2020,06,22,09,28,584.00
2020,06,22,09,29,589.00
2020,06,22,09,30,592.40
2020,06,22,09,31,594.00
2020,06,22,09,32,596.80
2020,06,22,09,33,600.40
2020,06,22,09,34,602.70
2020,06,22,09,35,603.30
2020,06,22,09,36,606.00
2020,06,22,09,37,607.60
2020,06,22,09,38,611.70
2020,06,22,09,39,614.40
2020,06,22,09,40,618.40
2020,06,22,09,41,619.30
2020,06,22,09,42,619.90
2020,06,22,09,43,597.30
2020,06,22,09,44,602.20
2020,06,22,09,45,582.60
2020,06,22,09,46,564.00
2020,06,22,09,47,668.00
2020,06,22,09,48,612.00
2020,06,22,09,49,511.10
2020,06,22,09,50,372.60
2020,06,22,09,51,416.90
2020,06,22,09,52,439.00
2020,06,22,09,53,463.40
2020,06,22,09,54,561.60
2020,06,22,09,55,577.00
2020,06,22,09,56,635.70
2020,06,22,09,57,666.00
2020,06,22,09,58,659.60
2020,06,22,09,59,522.80
2020,06,22,10,00,432.60
2020,06,22,10,01,373.30
2020,06,22,10,02,369.00
2020,06,22,10,03,475.60
2020,06,22,10,04,571.10
2020,06,22,10,05,658.00
2020,06,22,10,06,660.30
2020,06,22,10,07,687.50
2020,06,22,10,08,712.20
2020,06,22,10,09,707.00
2020,06,22,10,10,640.90
2020,06,22,10,11,693.20
2020,06,22,10,12,670.30
2020,06,22,10,13,593.00
2020,06,22,10,14,614.70
2020,06,22,10,15,633.00
2020,06,22,10,16,780.50
2020,06,22,10,17,765.80
2020,06,22,10,18,756.10
2020,06,22,10,19,751.50
2020,06,22,10,20,737.30
2020,06,22,10,21,736.10
2020,06,22,10,22,772.80
2020,06,22,10,23,774.60
2020,06,22,10,24,783.20
2020,06,22,10,25,785.20
2020,06,22,10,26,740.70
2020,06,22,10,27,655.30
2020,06,22,10,28,661.40
2020,06,22,10,29,751.20
2020,06,22,10,30,817.80
2020,06,22,10,31,891.00
2020,06,22,10,32,905.50
2020,06,22,10,33,905.00
2020,06,22,10,34,545.80
2020,06,22,10,35,547.30
2020,06,22,10,36,587.00
2020,06,22,10,37,527.00
2020,06,22,10,38,553.30
2020,06,22,10,39,571.00
2020,06,22,10,40,641.00
2020,06,22,10,41,921.00
2020,06,22,10,42,974.00
2020,06,22,10,43,1027.00
2020,06,22,10,44,937.80
2020,06,22,10,45,851.70
2020,06,22,10,46,835.00
2020,06,22,10,47,849.40
2020,06,22,10,48,859.80
2020,06,22,10,49,844.00
2020,06,22,10,50,844.00
2020,06,22,10,51,839.40
2020,06,22,10,52,781.50
2020,06,22,10,53,712.00
2020,06,22,10,54,769.40
2020,06,22,10,55,821.00
2020,06,22,10,56,830.50
2020,06,22,10,57,837.30
2020,06,22,10,58,844.20
2020,06,22,10,59,855.20
2020,06,22,11,00,867.00
2020,06,22,11,01,872.00
2020,06,22,11,02,899.80
2020,06,22,11,03,880.30
2020,06,22,11,04,879.00
2020,06,22,11,05,879.00
2020,06,22,11,06,921.30
2020,06,22,11,07,908.10
2020,06,22,11,08,891.00
2020,06,22,11,09,891.00
2020,06,22,11,10,891.00
2020,06,22,11,11,891.00
2020,06,22,11,12,811.70
2020,06,22,11,13,754.00
2020,06,22,11,14,609.80
2020,06,22,11,15,564.60
2020,06,22,11,16,531.00
2020,06,22,11,17,549.50
2020,06,22,11,18,567.40
2020,06,22,11,19,574.70
2020,06,22,11,20,576.80
2020,06,22,11,21,556.00
2020,06,22,11,22,555.20
2020,06,22,11,23,561.00
2020,06,22,11,24,637.80
2020,06,22,11,25,689.00
2020,06,22,11,26,561.20
2020,06,22,11,27,576.30
2020,06,22,11,28,681.90
2020,06,22,11,29,678.50
2020,06,22,11,30,706.60
2020,06,22,11,31,703.80
2020,06,22,11,32,681.60
2020,06,22,11,33,672.80
2020,06,22,11,34,613.30
2020,06,22,11,35,661.30
2020,06,22,11,36,703.00
2020,06,22,11,37,703.00
2020,06,22,11,38,773.10
2020,06,22,11,39,701.00
2020,06,22,11,40,701.00
2020,06,22,11,41,829.90
2020,06,22,11,42,946.00
2020,06,22,11,43,1373.80
2020,06,22,11,44,1454.00
2020,06,22,11,45,1454.00
2020,06,22,11,46,1094.40
2020,06,22,11,47,550.90
2020,06,22,11,48,529.80
2020,06,22,11,49,525.40
2020,06,22,11,50,556.10
2020,06,22,11,51,587.00
2020,06,22,11,52,628.80
2020,06,22,11,53,665.30
2020,06,22,11,54,681.10
2020,06,22,11,55,753.10
2020,06,22,11,56,800.80
2020,06,22,11,57,940.00
2020,06,22,11,58,897.80
2020,06,22,11,59,795.80
2020,06,22,12,00,755.20
2020,06,22,12,01,840.30
2020,06,22,12,02,859.00
2020,06,22,12,03,823.80
2020,06,22,12,04,780.00
2020,06,22,12,05,871.80
2020,06,22,12,06,933.00
2020,06,22,12,07,863.50
2020,06,22,12,08,926.00
2020,06,22,12,09,926.00
2020,06,22,12,10,926.00
2020,06,22,12,11,827.80
2020,06,22,12,12,749.70
2020,06,22,12,13,745.00
2020,06,22,12,14,733.80
2020,06,22,12,15,681.20
2020,06,22,12,16,681.50
2020,06,22,12,17,672.90
2020,06,22,12,18,665.80
2020,06,22,12,19,622.60
2020,06,22,12,20,639.80
2020,06,22,12,21,608.50
2020,06,22,12,22,582.00
2020,06,22,12,23,553.30
2020,06,22,12,24,530.70
2020,06,22,12,25,526.50
2020,06,22,12,26,540.60
2020,06,22,12,27,564.00
2020,06,22,12,28,545.30
2020,06,22,12,29,558.30
2020,06,22,12,30,561.00
2020,06,22,12,31,597.70
2020,06,22,12,32,665.50
2020,06,22,12,33,631.50
2020,06,22,12,34,613.00
2020,06,22,12,35,710.30
2020,06,22,12,36,726.20
2020,06,22,12,37,765.80
2020,06,22,12,38,933.00
2020,06,22,12,39,933.00
2020,06,22,12,40,737.80
2020,06,22,12,41,572.40
2020,06,22,12,42,537.30
2020,06,22,12,43,496.20
2020,06,22,12,44,513.00
2020,06,22,12,45,513.00
2020,06,22,12,46,513.00
2020,06,22,12,47,513.00
2020,06,22,12,48,513.00
2020,06,22,12,49,513.00
2020,06,22,12,50,703.50
2020,06,22,12,51,1011.50
2020,06,22,12,52,986.50
2020,06,22,12,53,975.80
2020,06,22,12,54,975.60
2020,06,22,12,55,936.80
2020,06,22,12,56,963.20
2020,06,22,12,57,981.30
2020,06,22,12,58,986.10
2020,06,22,12,59,1010.40
2020,06,22,13,00,1009.30
2020,06,22,13,01,1009.00
2020,06,22,13,02,1009.00
2020,06,22,13,03,1009.00
2020,06,22,13,04,753.10
2020,06,22,13,05,635.00
2020,06,22,13,06,914.10
2020,06,22,13,07,891.50
2020,06,22,13,08,906.50
2020,06,22,13,09,913.20
2020,06,22,13,10,915.40
2020,06,22,13,11,914.30
2020,06,22,13,12,914.00
2020,06,22,13,13,914.00
2020,06,22,13,14,914.00
2020,06,22,13,15,915.20
2020,06,22,13,16,914.50
2020,06,22,13,17,914.00
2020,06,22,13,18,916.00
2020,06,22,13,19,916.00
2020,06,22,13,20,919.30
2020,06,22,13,21,926.00
2020,06,22,13,22,931.20
2020,06,22,13,23,942.40
2020,06,22,13,24,970.00
2020,06,22,13,25,970.00
2020,06,22,13,26,926.90
2020,06,22,13,27,929.40
2020,06,22,13,28,946.40
2020,06,22,13,29,921.80
2020,06,22,13,30,740.00
2020,06,22,13,31,816.30
2020,06,22,13,32,962.30
2020,06,22,13,33,972.80
2020,06,22,13,34,984.00
2020,06,22,13,35,897.90
2020,06,22,13,36,840.80
2020,06,22,13,37,659.80
2020,06,22,13,38,682.00
2020,06,22,13,39,682.00
2020,06,22,13,40,682.00
2020,06,22,13,41,702.90
2020,06,22,13,42,886.00
2020,06,22,13,43,900.00
2020,06,22,13,44,929.80
2020,06,22,13,45,918.90
2020,06,22,13,46,918.00
2020,06,22,13,47,918.90
2020,06,22,13,48,918.00
2020,06,22,13,49,918.00
2020,06,22,13,50,922.60
2020,06,22,13,51,937.20
2020,06,22,13,52,942.00
2020,06,22,13,53,919.90
2020,06,22,13,54,918.70
2020,06,22,13,55,927.60
2020,06,22,13,56,958.80
2020,06,22,13,57,947.70
2020,06,22,13,58,929.70
2020,06,22,13,59,936.20
2020,06,22,14,00,928.80
2020,06,22,14,01,922.20
2020,06,22,14,02,921.00
2020,06,22,14,03,921.00
2020,06,22,14,04,920.90
2020,06,22,14,05,918.40
2020,06,22,14,06,916.90
2020,06,22,14,07,919.00
2020,06,22,14,08,919.00
2020,06,22,14,09,900.10
2020,06,22,14,10,902.50
2020,06,22,14,11,857.10
2020,06,22,14,12,920.30
2020,06,22,14,13,920.10
2020,06,22,14,14,919.10
2020,06,22,14,15,918.00
2020,06,22,14,16,920.90
2020,06,22,14,17,924.20
2020,06,22,14,18,933.10
2020,06,22,14,19,950.50
2020,06,22,14,20,963.20
2020,06,22,14,21,993.00
2020,06,22,14,22,1015.40
2020,06,22,14,23,991.00
2020,06,22,14,24,971.20
2020,06,22,14,25,934.00
2020,06,22,14,26,925.00
2020,06,22,14,27,925.00
2020,06,22,14,28,909.00
2020,06,22,14,29,909.00
2020,06,22,14,30,909.00
2020,06,22,14,31,909.00
2020,06,22,14,32,909.00
2020,06,22,14,33,1116.60
2020,06,22,14,34,1141.00
2020,06,22,14,35,1008.10
2020,06,22,14,36,698.00
2020,06,22,14,37,698.00
2020,06,22,14,38,698.00
2020,06,22,14,39,688.20
2020,06,22,14,40,716.50
2020,06,22,14,41,863.90
2020,06,22,14,42,842.00
2020,06,22,14,43,767.50
2020,06,22,14,44,785.20
2020,06,22,14,45,745.30
2020,06,22,14,46,800.60
2020,06,22,14,47,1034.90
2020,06,22,14,48,1044.00
2020,06,22,14,49,1059.10
2020,06,22,14,50,1036.80
2020,06,22,14,51,1027.80
2020,06,22,14,52,1025.30
2020,06,22,14,53,1008.10
2020,06,22,14,54,997.90
2020,06,22,14,55,1004.20
2020,06,22,14,56,1060.80
2020,06,22,14,57,1057.20
2020,06,22,14,58,1056.00
2020,06,22,14,59,1077.20
2020,06,22,15,00,1111.10
2020,06,22,15,01,1066.80
2020,06,22,15,02,1071.60
2020,06,22,15,03,1069.10
2020,06,22,15,04,1053.80
2020,06,22,15,05,1051.60
2020,06,22,15,06,1102.70
2020,06,22,15,07,1113.00
2020,06,22,15,08,1031.80
2020,06,22,15,09,1101.30
2020,06,22,15,10,1134.00
2020,06,22,15,11,1119.50
2020,06,22,15,12,1175.10
2020,06,22,15,13,1185.20
2020,06,22,15,14,1187.00
2020,06,22,15,15,1142.20
2020,06,22,15,16,1118.60
2020,06,22,15,17,1108.10
2020,06,22,15,18,1101.00
2020,06,22,15,19,1088.00
2020,06,22,15,20,1070.80
2020,06,22,15,21,1052.80
2020,06,22,15,22,1044.00
2020,06,22,15,23,1054.30
2020,06,22,15,24,1058.00
2020,06,22,15,25,1071.50
2020,06,22,15,26,1004.00
2020,06,22,15,27,1037.00
2020,06,22,15,28,901.50
2020,06,22,15,29,613.50
2020,06,22,15,30,592.80
2020,06,22,15,31,542.80
2020,06,22,15,32,465.80
2020,06,22,15,33,459.00
2020,06,22,15,34,482.10
2020,06,22,15,35,514.00
2020,06,22,15,36,579.40
2020,06,22,15,37,632.40
2020,06,22,15,38,652.30
2020,06,22,15,39,596.30
2020,06,22,15,40,559.80
2020,06,22,15,41,564.40
2020,06,22,15,42,570.40
2020,06,22,15,43,573.10
2020,06,22,15,44,517.90
2020,06,22,15,45,498.80
2020,06,22,15,46,498.80
2020,06,22,15,47,516.40
2020,06,22,15,48,565.40
2020,06,22,15,49,578.00
2020,06,22,15,50,606.00
2020,06,22,15,51,765.00
2020,06,22,15,52,825.60
2020,06,22,15,53,909.00
2020,06,22,15,54,961.50
2020,06,22,15,55,972.10
2020,06,22,15,56,1002.40
2020,06,22,15,57,907.90
2020,06,22,15,58,862.50
2020,06,22,15,59,793.60
2020,06,22,16,00,747.80
2020,06,22,16,01,742.00
2020,06,22,16,02,804.20
2020,06,22,16,03,837.70
2020,06,22,16,04,874.00
2020,06,22,16,05,974.20
2020,06,22,16,06,1020.40
2020,06,22,16,07,999.40
2020,06,22,16,08,963.40
2020,06,22,16,09,967.70
2020,06,22,16,10,959.30
2020,06,22,16,11,941.00
2020,06,22,16,12,930.60
2020,06,22,16,13,916.30
2020,06,22,16,14,865.00
2020,06,22,16,15,870.90
2020,06,22,16,16,863.50
2020,06,22,16,17,824.50
2020,06,22,16,18,789.90
2020,06,22,16,19,775.00
2020,06,22,16,20,767.60
2020,06,22,16,21,757.70
2020,06,22,16,22,749.40
2020,06,22,16,23,745.70
2020,06,22,16,24,744.20
2020,06,22,16,25,741.70
2020,06,22,16,26,735.80
2020,06,22,16,27,726.90
2020,06,22,16,28,722.90
2020,06,22,16,29,724.70
2020,06,22,16,30,724.30
2020,06,22,16,31,726.70
2020,06,22,16,32,732.60
2020,06,22,16,33,713.20
2020,06,22,16,34,684.00
2020,06,22,16,35,684.00
2020,06,22,16,36,350.50
2020,06,22,16,37,283.00
2020,06,22,16,38,430.20
2020,06,22,16,39,735.50
2020,06,22,16,40,750.30
2020,06,22,16,41,773.00
2020,06,22,16,42,773.00
2020,06,22,16,43,773.00
2020,06,22,16,44,773.00
2020,06,22,16,45,773.00
2020,06,22,16,46,773.00
2020,06,22,16,47,593.20
2020,06,22,16,48,448.00
2020,06,22,16,49,497.80
2020,06,22,16,50,759.50
2020,06,22,16,51,817.00
2020,06,22,16,52,809.40
2020,06,22,16,53,795.50
2020,06,22,16,54,777.70
2020,06,22,16,55,757.00
2020,06,22,16,56,742.40
2020,06,22,16,57,723.00
2020,06,22,16,58,709.90
2020,06,22,16,59,707.00
2020,06,22,17,00,569.00
2020,06,22,17,01,616.40
2020,06,22,17,02,603.80
2020,06,22,17,03,670.50
2020,06,22,17,04,679.20